VOE7CC LFBT-LICJ

Flight info

Callsign VOE7CC
Flight time 1h 41m
Altitude 37000
Route USAKU DCT TOU DCT LOMRA DCT ROCAN DCT PUMAL N859 BCN DCT DIPES/N0453F360 N725 OSPOK/N0451F370 DCT NOLVI DCT ORKUM/N0449F380 DCT ELSAG DCT ALG/N0453F370 DCT USEPI DCT SODIO DCT KOVAS DCT TUTIP DCT GIANO
Aircraft A320/M-SDE3FGHIRWY/LB1

Departure

Time 2026-04-29 08:07
Airport Tarbes-Lourdes-Pyrénées Airport (LFBT)

Arrival

Time 2026-04-29 09:48
Airport Falcone–Borsellino Airport (LICJ)
Time Latitude Longitude Altitude Speed Heading
2026-04-29 07:42 43.18499 0.00246 1198 ft 0 kts 16°
2026-04-29 08:01 43.18487 0.00241 1200 ft 2 kts 15°
2026-04-29 08:01 43.18472 0.00236 1200 ft 2 kts 16°
2026-04-29 08:01 43.18458 0.00230 1201 ft 2 kts 15°
2026-04-29 08:01 43.18449 0.00226 1201 ft 2 kts 14°
2026-04-29 08:02 43.18433 0.00227 1201 ft 2 kts 340°
2026-04-29 08:02 43.18420 0.00238 1201 ft 2 kts 313°
2026-04-29 08:02 43.18412 0.00255 1201 ft 1 kts 287°
2026-04-29 08:02 43.18411 0.00263 1201 ft 1 kts 279°
2026-04-29 08:03 43.18411 0.00266 1201 ft 0 kts 281°
2026-04-29 08:04 43.18411 0.00264 1201 ft 0 kts 281°
2026-04-29 08:05 43.18414 0.00244 1201 ft 4 kts 281°
2026-04-29 08:05 43.18425 0.00187 1201 ft 7 kts 292°
2026-04-29 08:05 43.18463 0.00114 1201 ft 10 kts 309°
2026-04-29 08:05 43.18491 0.00010 1200 ft 12 kts 284°
2026-04-29 08:06 43.18511 -0.00106 1201 ft 12 kts 283°
2026-04-29 08:06 43.18530 -0.00221 1203 ft 12 kts 283°
2026-04-29 08:06 43.18534 -0.00294 1202 ft 4 kts 201°
2026-04-29 08:06 43.18505 -0.00310 1203 ft 26 kts 200°
2026-04-29 08:07 43.18073 -0.00528 1217 ft 102 kts 200°
2026-04-29 08:07 43.17204 -0.00970 1288 ft 155 kts 198°
2026-04-29 08:07 43.16185 -0.01499 1899 ft 157 kts 198°
2026-04-29 08:07 43.15159 -0.02016 2591 ft 158 kts 198°
2026-04-29 08:08 43.14126 -0.02531 3182 ft 162 kts 198°
2026-04-29 08:08 43.12997 -0.03096 3497 ft 182 kts 199°
2026-04-29 08:08 43.11741 -0.03485 3870 ft 197 kts 175°
2026-04-29 08:08 43.10425 -0.02773 4172 ft 218 kts 137°
2026-04-29 08:09 43.09686 -0.00936 4643 ft 234 kts 97°
2026-04-29 08:09 43.09798 0.01291 5444 ft 237 kts 84°
2026-04-29 08:09 43.09963 0.03564 6258 ft 239 kts 86°
2026-04-29 08:09 43.10360 0.05779 6820 ft 255 kts 61°
2026-04-29 08:10 43.11691 0.07506 7253 ft 277 kts 26°
2026-04-29 08:10 43.13599 0.08209 7884 ft 289 kts
2026-04-29 08:10 43.15587 0.08623 8701 ft 294 kts
2026-04-29 08:10 43.17629 0.09117 9527 ft 299 kts 12°
2026-04-29 08:11 43.19684 0.09718 10299 ft 304 kts 13°
2026-04-29 08:11 43.21827 0.10426 10742 ft 320 kts 14°
2026-04-29 08:11 43.23965 0.11491 11114 ft 337 kts 33°
2026-04-29 08:11 43.25657 0.13775 11378 ft 351 kts 59°
2026-04-29 08:12 43.26742 0.16828 11874 ft 359 kts 69°
2026-04-29 08:12 43.27699 0.19967 12554 ft 365 kts 69°
2026-04-29 08:12 43.28731 0.23210 13240 ft 370 kts 68°
2026-04-29 08:12 43.29529 0.26623 13836 ft 371 kts 86°
2026-04-29 08:13 43.29262 0.30110 14449 ft 368 kts 112°
2026-04-29 08:13 43.27980 0.33104 15132 ft 364 kts 130°
2026-04-29 08:13 43.26368 0.35785 15790 ft 367 kts 131°
2026-04-29 08:13 43.24750 0.38485 16384 ft 372 kts 131°
2026-04-29 08:14 43.23150 0.41259 16962 ft 375 kts 129°
2026-04-29 08:14 43.21527 0.44170 17556 ft 379 kts 129°
2026-04-29 08:14 43.19929 0.47102 18128 ft 382 kts 128°
2026-04-29 08:14 43.18336 0.50061 18698 ft 385 kts 128°
2026-04-29 08:15 43.16743 0.53043 19227 ft 389 kts 128°
2026-04-29 08:15 43.15142 0.56050 19727 ft 393 kts 128°
2026-04-29 08:15 43.13526 0.59089 20248 ft 396 kts 128°
2026-04-29 08:15 43.11911 0.62131 20742 ft 400 kts 128°
2026-04-29 08:16 43.10259 0.65241 21229 ft 403 kts 128°
2026-04-29 08:16 43.08583 0.68394 21696 ft 407 kts 128°
2026-04-29 08:16 43.06891 0.71579 22167 ft 410 kts 128°
2026-04-29 08:16 43.05206 0.74747 22627 ft 413 kts 128°
2026-04-29 08:17 43.03522 0.77909 23067 ft 416 kts 128°
2026-04-29 08:17 43.01800 0.81139 23497 ft 420 kts 128°
2026-04-29 08:17 43.00073 0.84375 23943 ft 422 kts 128°
2026-04-29 08:17 42.98338 0.87625 24379 ft 425 kts 128°
2026-04-29 08:18 42.96598 0.90877 24795 ft 428 kts 128°
2026-04-29 08:18 42.94818 0.94203 25205 ft 430 kts 128°
2026-04-29 08:18 42.93034 0.97528 25612 ft 433 kts 128°
2026-04-29 08:18 42.91254 1.00843 25991 ft 435 kts 128°
2026-04-29 08:19 42.89472 1.04163 26373 ft 437 kts 128°
2026-04-29 08:19 42.87645 1.07560 26759 ft 439 kts 128°
2026-04-29 08:19 42.85838 1.10916 27121 ft 442 kts 128°
2026-04-29 08:19 42.83986 1.14353 27481 ft 444 kts 128°
2026-04-29 08:20 42.82161 1.17734 27828 ft 446 kts 128°
2026-04-29 08:20 42.80321 1.21142 28158 ft 448 kts 128°
2026-04-29 08:20 42.78492 1.24522 28489 ft 450 kts 128°
2026-04-29 08:20 42.76628 1.27964 28800 ft 452 kts 128°
2026-04-29 08:21 42.74758 1.31414 29112 ft 454 kts 128°
2026-04-29 08:21 42.72893 1.34850 29400 ft 456 kts 128°
2026-04-29 08:21 42.71006 1.38332 29674 ft 458 kts 127°
2026-04-29 08:21 42.69451 1.42097 29912 ft 463 kts 116°
2026-04-29 08:22 42.68203 1.46090 30283 ft 462 kts 114°
2026-04-29 08:22 42.66994 1.50097 30679 ft 461 kts 114°
2026-04-29 08:22 42.65771 1.54133 31065 ft 459 kts 114°
2026-04-29 08:22 42.64541 1.58134 31422 ft 458 kts 114°
2026-04-29 08:23 42.63314 1.62078 31775 ft 457 kts 115°
2026-04-29 08:23 42.62078 1.66017 32118 ft 456 kts 115°
2026-04-29 08:23 42.60831 1.69966 32458 ft 455 kts 116°
2026-04-29 08:23 42.59586 1.73892 32779 ft 454 kts 115°
2026-04-29 08:24 42.58332 1.77833 33101 ft 454 kts 115°
2026-04-29 08:24 42.57088 1.81732 33427 ft 453 kts 115°
2026-04-29 08:24 42.55847 1.85619 33734 ft 452 kts 115°
2026-04-29 08:24 42.54606 1.89498 34045 ft 451 kts 115°
2026-04-29 08:25 42.53363 1.93374 34342 ft 450 kts 115°
2026-04-29 08:25 42.52118 1.97256 34625 ft 449 kts 115°
2026-04-29 08:25 42.50875 2.01123 34885 ft 448 kts 115°
2026-04-29 08:25 42.49638 2.04968 35114 ft 448 kts 115°
2026-04-29 08:26 42.48386 2.08850 35313 ft 448 kts 115°
2026-04-29 08:26 42.47147 2.12690 35501 ft 448 kts 115°
2026-04-29 08:26 42.45910 2.16516 35666 ft 449 kts 115°
2026-04-29 08:26 42.44653 2.20395 35831 ft 450 kts 115°
2026-04-29 08:27 42.43392 2.24291 36258 ft 451 kts 115°
2026-04-29 08:27 42.42142 2.28138 36424 ft 451 kts 115°
2026-04-29 08:27 42.40887 2.32000 36237 ft 453 kts 115°
2026-04-29 08:27 42.39611 2.35915 36322 ft 454 kts 115°
2026-04-29 08:28 42.38348 2.39793 36458 ft 455 kts 115°
2026-04-29 08:28 42.37071 2.43705 36615 ft 455 kts 115°
2026-04-29 08:28 42.35788 2.47627 36775 ft 455 kts 115°
2026-04-29 08:28 42.34525 2.51478 37262 ft 456 kts 115°
2026-04-29 08:29 42.33229 2.55433 37132 ft 456 kts 115°
2026-04-29 08:29 42.31952 2.59323 37026 ft 456 kts 115°
2026-04-29 08:29 42.29390 2.67107 36979 ft 455 kts 115°
2026-04-29 08:30 42.25539 2.78766 36975 ft 455 kts 115°
2026-04-29 08:31 42.22959 2.86546 36976 ft 455 kts 115°
2026-04-29 08:31 42.20385 2.94289 36972 ft 455 kts 115°
2026-04-29 08:32 42.17798 3.02052 36968 ft 456 kts 115°
2026-04-29 08:32 42.15189 3.09851 36967 ft 456 kts 115°
2026-04-29 08:33 42.12593 3.17589 36960 ft 456 kts 115°
2026-04-29 08:33 42.09990 3.25331 36958 ft 456 kts 115°
2026-04-29 08:34 42.07373 3.33092 36963 ft 457 kts 115°
2026-04-29 08:34 42.04755 3.40836 36960 ft 456 kts 115°
2026-04-29 08:35 42.02134 3.48565 36788 ft 455 kts 115°
2026-04-29 08:35 42.00816 3.52441 36908 ft 456 kts 115°
2026-04-29 08:35 41.99509 3.56284 36944 ft 458 kts 115°
2026-04-29 08:36 41.96850 3.64080 36962 ft 459 kts 115°
2026-04-29 08:36 41.94192 3.71853 36955 ft 459 kts 115°
2026-04-29 08:37 41.91533 3.79604 36958 ft 459 kts 115°
2026-04-29 08:37 41.88874 3.87339 36958 ft 459 kts 115°
2026-04-29 08:38 41.86194 3.95119 36958 ft 459 kts 116°
2026-04-29 08:38 41.83529 4.02823 36958 ft 459 kts 115°
2026-04-29 08:39 41.80843 4.10568 36957 ft 458 kts 116°
2026-04-29 08:39 41.78168 4.18259 36962 ft 457 kts 115°
2026-04-29 08:40 41.75477 4.25971 36956 ft 457 kts 115°
2026-04-29 08:40 41.72810 4.33602 36953 ft 457 kts 115°
2026-04-29 08:41 41.70120 4.41282 36953 ft 457 kts 115°
2026-04-29 08:41 41.67417 4.48960 36952 ft 456 kts 115°
2026-04-29 08:42 41.64725 4.56597 36950 ft 457 kts 115°
2026-04-29 08:42 41.62013 4.64275 36947 ft 458 kts 115°
2026-04-29 08:43 41.59303 4.71923 36952 ft 458 kts 116°
2026-04-29 08:43 41.56588 4.79560 36955 ft 457 kts 116°
2026-04-29 08:44 41.53861 4.87214 36955 ft 457 kts 116°
2026-04-29 08:44 41.51138 4.94831 36953 ft 457 kts 116°
2026-04-29 08:45 41.48393 5.02493 36954 ft 458 kts 116°
2026-04-29 08:45 41.45666 5.10086 36955 ft 458 kts 116°
2026-04-29 08:46 41.42913 5.17730 36951 ft 458 kts 116°
2026-04-29 08:46 41.40157 5.25362 36949 ft 458 kts 116°
2026-04-29 08:47 41.37410 5.32947 36950 ft 458 kts 116°
2026-04-29 08:47 41.34638 5.40578 36948 ft 458 kts 116°
2026-04-29 08:48 41.31874 5.48170 36952 ft 458 kts 116°
2026-04-29 08:48 41.29088 5.55805 36954 ft 459 kts 116°
2026-04-29 08:49 41.26309 5.63399 36961 ft 459 kts 116°
2026-04-29 08:49 41.23531 5.70969 36963 ft 460 kts 117°
2026-04-29 08:50 41.20730 5.78578 36965 ft 460 kts 117°
2026-04-29 08:50 41.17909 5.86226 36962 ft 460 kts 117°
2026-04-29 08:51 41.15102 5.93834 36964 ft 460 kts 116°
2026-04-29 08:51 41.12609 6.01609 36964 ft 461 kts 112°
2026-04-29 08:52 41.10210 6.09412 36958 ft 461 kts 113°
2026-04-29 08:52 41.07770 6.17258 36960 ft 461 kts 113°
2026-04-29 08:53 41.05309 6.25110 36958 ft 462 kts 113°
2026-04-29 08:53 41.02843 6.32925 36957 ft 461 kts 113°
2026-04-29 08:54 41.00370 6.40742 36953 ft 462 kts 113°
2026-04-29 08:54 40.97886 6.48561 36950 ft 462 kts 113°
2026-04-29 08:55 40.95411 6.56337 37142 ft 461 kts 113°
2026-04-29 08:55 40.94171 6.60225 37015 ft 459 kts 113°
2026-04-29 08:55 40.92929 6.64112 36966 ft 459 kts 113°
2026-04-29 08:55 40.91695 6.67967 36714 ft 458 kts 114°
2026-04-29 08:56 40.90462 6.71821 36870 ft 459 kts 114°
2026-04-29 08:56 40.87962 6.79606 36933 ft 462 kts 114°
2026-04-29 08:57 40.85466 6.87357 36939 ft 462 kts 114°
2026-04-29 08:57 40.82947 6.95156 36938 ft 462 kts 114°
2026-04-29 08:57 40.81695 6.99029 37184 ft 463 kts 114°
2026-04-29 08:58 40.80431 7.02923 37026 ft 461 kts 114°
2026-04-29 08:58 40.77926 7.10637 36957 ft 461 kts 114°
2026-04-29 08:58 40.76659 7.14528 36712 ft 460 kts 114°
2026-04-29 08:59 40.75397 7.18405 36869 ft 461 kts 114°
2026-04-29 08:59 40.72863 7.26164 36932 ft 464 kts 114°
2026-04-29 09:00 40.70314 7.33952 36938 ft 465 kts 114°
2026-04-29 09:00 40.67753 7.41746 36934 ft 465 kts 114°
2026-04-29 09:01 40.65197 7.49503 36933 ft 465 kts 114°
2026-04-29 09:01 40.62621 7.57302 36934 ft 466 kts 114°
2026-04-29 09:02 40.60034 7.65111 36933 ft 466 kts 115°
2026-04-29 09:02 40.57441 7.72920 36936 ft 466 kts 115°
2026-04-29 09:03 40.54853 7.80696 36937 ft 467 kts 115°
2026-04-29 09:03 40.52260 7.88460 36943 ft 468 kts 115°
2026-04-29 09:04 40.49633 7.96298 36943 ft 468 kts 115°
2026-04-29 09:04 40.47025 8.04062 36943 ft 468 kts 115°
2026-04-29 09:05 40.44398 8.11863 36941 ft 469 kts 115°
2026-04-29 09:05 40.41758 8.19679 36941 ft 469 kts 115°
2026-04-29 09:06 40.39127 8.27446 36940 ft 469 kts 115°
2026-04-29 09:06 40.36475 8.35257 36941 ft 469 kts 115°
2026-04-29 09:07 40.33840 8.42992 36948 ft 470 kts 115°
2026-04-29 09:07 40.31165 8.50823 36955 ft 470 kts 115°
2026-04-29 09:08 40.28509 8.58577 36962 ft 470 kts 115°
2026-04-29 09:08 40.25832 8.66373 36966 ft 471 kts 115°
2026-04-29 09:09 40.23151 8.74165 36970 ft 471 kts 116°
2026-04-29 09:09 40.20468 8.81940 36968 ft 472 kts 116°
2026-04-29 09:10 40.17765 8.89745 36960 ft 472 kts 115°
2026-04-29 09:10 40.15070 8.97508 36954 ft 472 kts 116°
2026-04-29 09:11 40.12355 9.05302 36959 ft 472 kts 115°
2026-04-29 09:11 40.09640 9.13083 36979 ft 474 kts 115°
2026-04-29 09:12 40.06912 9.20877 36992 ft 474 kts 115°
2026-04-29 09:12 40.04175 9.28678 37016 ft 474 kts 115°
2026-04-29 09:13 40.01430 9.36481 37019 ft 474 kts 115°
2026-04-29 09:13 39.98679 9.44277 37026 ft 474 kts 115°
2026-04-29 09:14 39.95926 9.52057 37019 ft 475 kts 115°
2026-04-29 09:14 39.93163 9.59844 37017 ft 475 kts 115°
2026-04-29 09:15 39.90406 9.67592 36995 ft 475 kts 116°
2026-04-29 09:15 39.87635 9.75362 36989 ft 476 kts 116°
2026-04-29 09:16 39.84837 9.83191 36983 ft 476 kts 116°
2026-04-29 09:16 39.82046 9.90971 36987 ft 476 kts 116°
2026-04-29 09:17 39.79259 9.98726 36999 ft 477 kts 116°
2026-04-29 09:17 39.76442 10.06539 36993 ft 477 kts 116°
2026-04-29 09:18 39.73635 10.14301 36996 ft 477 kts 116°
2026-04-29 09:18 39.70811 10.22095 36996 ft 478 kts 116°
2026-04-29 09:19 39.68000 10.29835 36995 ft 478 kts 116°
2026-04-29 09:19 39.65163 10.37619 37001 ft 478 kts 116°
2026-04-29 09:20 39.62329 10.45375 37003 ft 478 kts 116°
2026-04-29 09:20 39.59472 10.53178 36996 ft 479 kts 116°
2026-04-29 09:21 39.56615 10.60957 36996 ft 479 kts 116°
2026-04-29 09:21 39.53769 10.68686 36998 ft 480 kts 117°
2026-04-29 09:22 39.50887 10.76488 37000 ft 479 kts 117°
2026-04-29 09:22 39.48012 10.84258 37002 ft 480 kts 117°
2026-04-29 09:23 39.45126 10.92035 37008 ft 481 kts 117°
2026-04-29 09:23 39.42250 10.99763 36997 ft 481 kts 117°
2026-04-29 09:24 39.39339 11.07568 36993 ft 481 kts 117°
2026-04-29 09:24 39.36438 11.15320 37000 ft 482 kts 117°
2026-04-29 09:25 39.33521 11.23097 36996 ft 482 kts 117°
2026-04-29 09:25 39.30605 11.30852 36996 ft 483 kts 117°
2026-04-29 09:26 39.27658 11.38669 36996 ft 483 kts 117°
2026-04-29 09:26 39.24737 11.46402 36680 ft 478 kts 117°
2026-04-29 09:26 39.23293 11.50216 35952 ft 479 kts 117°
2026-04-29 09:27 39.21825 11.54083 35170 ft 482 kts 117°
2026-04-29 09:27 39.20369 11.57914 34440 ft 484 kts 117°
2026-04-29 09:27 39.18896 11.61789 33633 ft 484 kts 117°
2026-04-29 09:27 39.17414 11.65680 32773 ft 486 kts 117°
2026-04-29 09:28 39.15914 11.69609 31866 ft 487 kts 117°
2026-04-29 09:28 39.14434 11.73482 30941 ft 488 kts 117°
2026-04-29 09:28 39.12940 11.77393 29914 ft 490 kts 116°
2026-04-29 09:28 39.11452 11.81287 28926 ft 489 kts 116°
2026-04-29 09:29 39.09956 11.85200 28137 ft 484 kts 117°
2026-04-29 09:29 39.07030 11.92831 26921 ft 468 kts 117°
2026-04-29 09:29 39.05606 11.96535 26368 ft 461 kts 117°
2026-04-29 09:30 39.04199 12.00193 25816 ft 454 kts 117°
2026-04-29 09:30 39.02820 12.03771 25367 ft 448 kts 117°
2026-04-29 09:30 39.01438 12.07347 25106 ft 447 kts 117°
2026-04-29 09:30 39.00058 12.10915 24845 ft 446 kts 117°
2026-04-29 09:31 38.98670 12.14501 24579 ft 444 kts 117°
2026-04-29 09:31 38.97305 12.18024 24321 ft 442 kts 117°
2026-04-29 09:31 38.95943 12.21537 24059 ft 441 kts 117°
2026-04-29 09:31 38.94584 12.25037 23798 ft 439 kts 117°
2026-04-29 09:32 38.93110 12.28457 23540 ft 437 kts 121°
2026-04-29 09:32 38.91531 12.31810 23281 ft 435 kts 122°
2026-04-29 09:32 38.89973 12.35075 23024 ft 433 kts 122°
2026-04-29 09:32 38.88407 12.38374 22767 ft 432 kts 122°
2026-04-29 09:33 38.86856 12.41663 22511 ft 429 kts 122°
2026-04-29 09:33 38.85333 12.44909 22257 ft 427 kts 122°
2026-04-29 09:33 38.83802 12.48181 21999 ft 426 kts 122°
2026-04-29 09:33 38.82282 12.51431 21742 ft 424 kts 122°
2026-04-29 09:34 38.80789 12.54625 21487 ft 422 kts 122°
2026-04-29 09:34 38.79279 12.57854 21235 ft 420 kts 122°
2026-04-29 09:34 38.77779 12.61059 20978 ft 418 kts 122°
2026-04-29 09:34 38.76300 12.64217 20722 ft 417 kts 122°
2026-04-29 09:35 38.74813 12.67391 20443 ft 415 kts 122°
2026-04-29 09:35 38.73331 12.70550 20146 ft 413 kts 122°
2026-04-29 09:35 38.71855 12.73694 19840 ft 410 kts 122°
2026-04-29 09:35 38.70408 12.76772 19521 ft 408 kts 122°
2026-04-29 09:36 38.68953 12.79864 18968 ft 404 kts 122°
2026-04-29 09:36 38.67516 12.82914 17735 ft 404 kts 122°
2026-04-29 09:36 38.66087 12.85946 16368 ft 403 kts 122°
2026-04-29 09:36 38.64661 12.88969 15141 ft 396 kts 122°
2026-04-29 09:37 38.63267 12.91922 13973 ft 389 kts 122°
2026-04-29 09:37 38.61900 12.94813 12752 ft 381 kts 122°
2026-04-29 09:37 38.60549 12.97665 11717 ft 374 kts 122°
2026-04-29 09:37 38.59224 13.00465 11268 ft 363 kts 122°
2026-04-29 09:38 38.57924 13.03211 10831 ft 355 kts 122°
2026-04-29 09:38 38.56671 13.05854 10639 ft 340 kts 122°
2026-04-29 09:38 38.55475 13.08375 10470 ft 327 kts 122°
2026-04-29 09:38 38.54323 13.10802 10303 ft 314 kts 122°
2026-04-29 09:39 38.53207 13.13152 10150 ft 302 kts 122°
2026-04-29 09:39 38.52147 13.15380 9998 ft 292 kts 122°
2026-04-29 09:39 38.51090 13.17600 9622 ft 291 kts 122°
2026-04-29 09:39 38.50038 13.19806 9246 ft 290 kts 122°
2026-04-29 09:40 38.49008 13.21965 8897 ft 288 kts 122°
2026-04-29 09:40 38.47827 13.24019 8469 ft 284 kts 141°
2026-04-29 09:40 38.46149 13.25242 7888 ft 278 kts 160°
2026-04-29 09:40 38.44344 13.26047 7252 ft 275 kts 163°
2026-04-29 09:41 38.42531 13.26838 6619 ft 273 kts 161°
2026-04-29 09:41 38.40777 13.27661 6007 ft 269 kts 160°
2026-04-29 09:41 38.39061 13.28517 5555 ft 260 kts 159°
2026-04-29 09:41 38.37415 13.29368 5072 ft 253 kts 158°
2026-04-29 09:42 38.35814 13.30211 4656 ft 245 kts 158°
2026-04-29 09:42 38.34279 13.31028 4241 ft 238 kts 157°
2026-04-29 09:42 38.32776 13.31832 3909 ft 229 kts 156°
2026-04-29 09:42 38.31333 13.32605 3766 ft 219 kts 156°
2026-04-29 09:43 38.29977 13.33333 3673 ft 207 kts 156°
2026-04-29 09:43 38.28681 13.34028 3628 ft 195 kts 156°
2026-04-29 09:43 38.27410 13.34608 3573 ft 194 kts 173°
2026-04-29 09:43 38.26134 13.34205 3426 ft 196 kts 218°
2026-04-29 09:44 38.25389 13.32782 3373 ft 192 kts 247°
2026-04-29 09:44 38.24943 13.31232 3233 ft 181 kts 246°
2026-04-29 09:44 38.24495 13.29783 3011 ft 177 kts 245°
2026-04-29 09:44 38.24030 13.28350 2734 ft 175 kts 245°
2026-04-29 09:45 38.23562 13.26933 2480 ft 171 kts 245°
2026-04-29 09:45 38.23105 13.25558 2243 ft 163 kts 245°
2026-04-29 09:45 38.22688 13.24305 2052 ft 150 kts 245°
2026-04-29 09:45 38.22295 13.23129 1835 ft 138 kts 245°
2026-04-29 09:46 38.21917 13.22002 1667 ft 138 kts 245°
2026-04-29 09:46 38.21544 13.20891 1492 ft 137 kts 245°
2026-04-29 09:46 38.21167 13.19770 1312 ft 137 kts 246°
2026-04-29 09:46 38.20797 13.18668 1136 ft 137 kts 246°
2026-04-29 09:47 38.20420 13.17552 957 ft 137 kts 246°
2026-04-29 09:47 38.20045 13.16452 813 ft 136 kts 247°
2026-04-29 09:47 38.19673 13.15348 699 ft 136 kts 246°
2026-04-29 09:47 38.19299 13.14236 564 ft 136 kts 248°
2026-04-29 09:48 38.18943 13.13131 319 ft 135 kts 248°
2026-04-29 09:48 38.18569 13.12042 111 ft 134 kts 248°
2026-04-29 09:48 38.18231 13.11033 89 ft 104 kts 246°
2026-04-29 09:48 38.18031 13.10427 84 ft 44 kts 249°
2026-04-29 09:49 38.18019 13.10199 76 ft 17 kts 277°
2026-04-29 09:49 38.18037 13.10031 68 ft 20 kts 277°
2026-04-29 09:49 38.18076 13.09947 63 ft 11 kts 39°
2026-04-29 09:49 38.18108 13.10043 65 ft 11 kts 67°
2026-04-29 09:50 38.18139 13.10134 66 ft 11 kts 66°
2026-04-29 09:50 38.18171 13.10226 68 ft 12 kts 68°
2026-04-29 09:50 38.18203 13.10326 70 ft 12 kts 66°
2026-04-29 09:50 38.18273 13.10349 67 ft 13 kts 343°
2026-04-29 09:51 38.18293 13.10367 66 ft 4 kts 69°
2026-04-29 09:51 38.18321 13.10447 68 ft 11 kts 64°
2026-04-29 09:51 38.18391 13.10500 67 ft 12 kts 20°
2026-04-29 09:51 38.18459 13.10485 64 ft 8 kts 342°
2026-04-29 09:52 38.18493 13.10468 62 ft 0 kts 336°
2026-04-29 09:52 38.18498 13.10465 61 ft 0 kts 335°